Time,TemperatureF,DewpointF,PressureIn,WindDirection,WindDirectionDegrees,WindSpeedMPH,WindSpeedGustMPH,Humidity,HourlyPrecipIn,Conditions,Clouds,dailyrainin,SoftwareType,DateUTC
2013-02-20 00:04:00,38.3,14.9,29.23,SSE,158,5.4,11.9,38,0.00,,---,0.00,VWS V13.01,2013-02-20 05:04:00,
2013-02-20 00:09:00,37.9,13.4,29.23,SSE,153,7.6,10.5,36,0.00,,---,0.00,VWS V13.01,2013-02-20 05:09:00,
2013-02-20 00:14:00,37.9,13.4,29.23,SE,126,4.9,15.0,36,0.00,,---,0.00,VWS V13.01,2013-02-20 05:14:00,
2013-02-20 00:19:00,37.8,12.6,29.23,SSE,158,4.0,8.3,35,0.00,,---,0.00,VWS V13.01,2013-02-20 05:19:00,
2013-02-20 00:24:00,37.4,11.6,29.23,SE,137,3.6,10.5,34,0.00,,---,0.00,VWS V13.01,2013-02-20 05:24:00,
2013-02-20 00:29:00,37.0,10.6,29.23,South,170,8.3,12.3,33,0.00,,---,0.00,VWS V13.01,2013-02-20 05:29:00,
2013-02-20 00:34:00,36.9,10.5,29.23,SSW,211,6.3,12.3,33,0.00,,---,0.00,VWS V13.01,2013-02-20 05:34:00,
2013-02-20 00:39:00,36.7,9.6,29.23,SSW,194,8.3,15.0,32,0.00,,---,0.00,VWS V13.01,2013-02-20 05:39:00,
2013-02-20 00:44:00,36.7,9.6,29.23,SW,224,3.6,12.3,32,0.00,,---,0.00,VWS V13.01,2013-02-20 05:44:00,
2013-02-20 00:49:00,36.3,9.3,29.23,South,169,12.8,12.8,32,0.00,,---,0.00,VWS V13.01,2013-02-20 05:49:00,
2013-02-20 00:54:00,36.1,9.1,29.23,South,169,2.7,12.8,32,0.00,,---,0.00,VWS V13.01,2013-02-20 05:54:00,
2013-02-20 00:59:00,36.1,9.1,29.23,SSE,155,8.3,12.8,32,0.00,,---,0.00,VWS V13.01,2013-02-20 05:59:00,
2013-02-20 01:09:00,36.0,9.0,29.23,SSE,166,4.0,8.7,32,0.00,,---,0.00,VWS V13.01,2013-02-20 06:09:00,
2013-02-20 01:14:00,35.8,8.8,29.23,SSE,167,2.7,10.5,32,0.00,,---,0.00,VWS V13.01,2013-02-20 06:14:00,
2013-02-20 01:19:00,35.8,8.8,29.23,South,169,8.1,11.4,32,0.00,,---,0.00,VWS V13.01,2013-02-20 06:19:00,
2013-02-20 01:24:00,35.6,8.0,29.23,South,186,4.5,12.8,31,0.00,,---,0.00,VWS V13.01,2013-02-20 06:24:00,
2013-02-20 01:29:00,35.6,7.2,29.23,ESE,113,8.7,17.4,30,0.00,,---,0.00,VWS V13.01,2013-02-20 06:29:00,
2013-02-20 01:34:00,35.6,7.2,29.23,NW,306,5.8,13.2,30,0.00,,---,0.00,VWS V13.01,2013-02-20 06:34:00,
2013-02-20 01:39:00,35.6,7.2,29.23,East,96,8.3,19.7,30,0.00,,---,0.00,VWS V13.01,2013-02-20 06:39:00,
2013-02-20 01:44:00,35.4,7.1,29.23,SSW,207,5.8,13.2,30,0.00,,---,0.00,VWS V13.01,2013-02-20 06:44:00,
2013-02-20 01:54:00,35.2,6.9,29.23,SSE,160,6.7,15.0,30,0.00,,---,0.00,VWS V13.01,2013-02-20 06:54:00,
2013-02-20 01:59:00,35.2,6.9,29.23,South,180,8.7,15.0,30,0.00,,---,0.00,VWS V13.01,2013-02-20 06:59:00,
2013-02-20 02:09:00,34.9,6.6,29.23,South,179,8.7,11.0,30,0.00,,---,0.00,VWS V13.01,2013-02-20 07:09:00,
2013-02-20 02:14:00,34.9,6.6,29.23,SSE,167,8.3,10.1,30,0.00,,---,0.00,VWS V13.01,2013-02-20 07:14:00,
2013-02-20 02:19:00,34.9,6.6,29.23,SW,224,14.1,14.1,30,0.00,,---,0.00,VWS V13.01,2013-02-20 07:19:00,
2013-02-20 02:24:00,34.9,6.6,29.23,SE,138,5.8,15.4,30,0.00,,---,0.00,VWS V13.01,2013-02-20 07:24:00,
2013-02-20 02:29:00,34.7,6.4,29.23,South,183,5.8,11.0,30,0.00,,---,0.00,VWS V13.01,2013-02-20 07:29:00,
2013-02-20 02:39:00,34.5,6.3,29.23,South,169,12.3,13.2,30,0.00,,---,0.00,VWS V13.01,2013-02-20 07:39:00,
2013-02-20 02:44:00,34.5,6.3,29.23,SSE,163,6.3,19.7,30,0.00,,---,0.00,VWS V13.01,2013-02-20 07:44:00,
2013-02-20 02:49:00,34.5,4.0,29.23,SE,142,8.3,13.6,27,0.00,,---,0.00,VWS V13.01,2013-02-20 07:49:00,
2013-02-20 02:54:00,34.3,3.8,29.23,SSW,201,5.8,17.9,27,0.00,,---,0.00,VWS V13.01,2013-02-20 07:54:00,
2013-02-20 02:59:00,34.2,3.7,29.23,SSW,192,5.4,11.9,27,0.00,,---,0.00,VWS V13.01,2013-02-20 07:59:00,
2013-02-20 03:09:00,34.0,3.5,29.23,SSW,211,9.2,12.8,27,0.00,,---,0.00,VWS V13.01,2013-02-20 08:09:00,
2013-02-20 03:14:00,34.0,3.5,29.23,SSW,192,3.6,15.0,27,0.00,,---,0.00,VWS V13.01,2013-02-20 08:14:00,
2013-02-20 03:24:00,33.8,3.4,29.23,SW,231,11.4,14.5,27,0.00,,---,0.00,VWS V13.01,2013-02-20 08:24:00,
2013-02-20 03:29:00,33.6,4.0,29.23,SSE,162,7.6,14.5,28,0.00,,---,0.00,VWS V13.01,2013-02-20 08:29:00,
2013-02-20 03:34:00,33.6,4.0,29.23,South,182,4.0,12.8,28,0.00,,---,0.00,VWS V13.01,2013-02-20 08:34:00,
2013-02-20 03:39:00,33.4,3.8,29.23,WSW,255,7.2,11.0,28,0.00,,---,0.00,VWS V13.01,2013-02-20 08:39:00,
2013-02-20 03:49:00,33.3,5.2,29.23,South,177,11.0,11.0,30,0.00,,---,0.00,VWS V13.01,2013-02-20 08:49:00,
2013-02-20 03:54:00,33.3,3.7,29.23,South,171,6.3,11.0,28,0.00,,---,0.00,VWS V13.01,2013-02-20 08:54:00,
2013-02-20 03:59:00,33.1,3.5,29.23,South,180,6.3,17.4,28,0.00,,---,0.00,VWS V13.01,2013-02-20 08:59:00,
2013-02-20 04:04:00,33.1,5.0,29.23,East,91,5.4,12.3,30,0.00,,---,0.00,VWS V13.01,2013-02-20 09:04:00,
2013-02-20 04:09:00,32.9,3.4,29.23,SSE,158,5.8,11.0,28,0.00,,---,0.00,VWS V13.01,2013-02-20 09:09:00,
2013-02-20 04:14:00,32.9,4.9,29.23,SSW,192,5.4,10.1,30,0.00,,---,0.00,VWS V13.01,2013-02-20 09:14:00,
2013-02-20 04:19:00,32.7,4.7,29.23,South,177,3.1,11.0,30,0.00,,---,0.00,VWS V13.01,2013-02-20 09:19:00,
2013-02-20 04:24:00,32.5,4.6,29.23,South,189,5.4,11.9,30,0.00,,---,0.00,VWS V13.01,2013-02-20 09:24:00,
2013-02-20 04:34:00,32.5,4.6,29.23,SSE,154,9.6,12.8,30,0.00,,---,0.00,VWS V13.01,2013-02-20 09:34:00,
2013-02-20 04:39:00,32.5,4.6,29.23,SSW,196,7.6,13.6,30,0.00,,---,0.00,VWS V13.01,2013-02-20 09:39:00,
2013-02-20 04:44:00,32.4,4.4,29.23,SSE,161,6.3,8.7,30,0.00,,---,0.00,VWS V13.01,2013-02-20 09:44:00,
2013-02-20 04:49:00,32.4,4.4,29.23,SSE,163,5.8,11.9,30,0.00,,---,0.00,VWS V13.01,2013-02-20 09:49:00,
2013-02-20 04:54:00,32.4,4.4,29.23,SSE,160,4.9,11.9,30,0.00,,---,0.00,VWS V13.01,2013-02-20 09:54:00,
2013-02-20 04:59:00,32.2,4.2,29.23,SSE,151,4.0,11.0,30,0.00,,---,0.00,VWS V13.01,2013-02-20 09:59:00,
2013-02-20 05:04:00,32.2,4.2,29.23,South,189,5.8,6.7,30,0.00,,---,0.00,VWS V13.01,2013-02-20 10:04:00,
2013-02-20 05:09:00,32.0,4.1,29.23,SSE,164,3.6,8.3,30,0.00,,---,0.00,VWS V13.01,2013-02-20 10:09:00,
2013-02-20 05:19:00,32.0,4.1,29.26,South,178,4.0,11.0,30,0.00,,---,0.00,VWS V13.01,2013-02-20 10:19:00,
2013-02-20 05:24:00,31.8,3.9,29.26,SSE,162,5.4,11.0,30,0.00,,---,0.00,VWS V13.01,2013-02-20 10:24:00,
2013-02-20 05:29:00,31.8,3.9,29.26,SE,142,5.4,11.9,30,0.00,,---,0.00,VWS V13.01,2013-02-20 10:29:00,
2013-02-20 05:34:00,31.8,3.9,29.26,South,181,8.3,11.4,30,0.00,,---,0.00,VWS V13.01,2013-02-20 10:34:00,
2013-02-20 05:39:00,31.6,3.8,29.26,SSE,164,3.6,12.3,30,0.00,,---,0.00,VWS V13.01,2013-02-20 10:39:00,
2013-02-20 05:44:00,31.6,3.8,29.26,SW,216,5.4,10.5,30,0.00,,---,0.00,VWS V13.01,2013-02-20 10:44:00,
2013-02-20 05:49:00,31.6,3.8,29.26,South,179,4.0,11.0,30,0.00,,---,0.00,VWS V13.01,2013-02-20 10:49:00,
2013-02-20 05:59:00,31.3,3.5,29.26,SSE,153,7.2,12.8,30,0.00,,---,0.00,VWS V13.01,2013-02-20 10:59:00,
2013-02-20 06:04:00,31.3,3.5,29.26,SSW,208,5.4,11.0,30,0.00,,---,0.00,VWS V13.01,2013-02-20 11:04:00,
2013-02-20 06:09:00,31.1,3.3,29.26,South,182,3.6,9.6,30,0.00,,---,0.00,VWS V13.01,2013-02-20 11:09:00,
2013-02-20 06:14:00,31.1,3.3,29.26,South,180,5.4,8.3,30,0.00,,---,0.00,VWS V13.01,2013-02-20 11:14:00,
2013-02-20 06:19:00,30.9,3.1,29.29,South,173,4.0,6.3,30,0.00,,---,0.00,VWS V13.01,2013-02-20 11:19:00,
2013-02-20 06:24:00,30.9,3.1,29.29,SE,133,5.4,8.7,30,0.00,,---,0.00,VWS V13.01,2013-02-20 11:24:00,
2013-02-20 06:29:00,30.9,3.1,29.29,South,173,4.0,8.3,30,0.00,,---,0.00,VWS V13.01,2013-02-20 11:29:00,
2013-02-20 06:34:00,30.9,3.1,29.29,SSE,164,5.4,8.7,30,0.00,,---,0.00,VWS V13.01,2013-02-20 11:34:00,
2013-02-20 06:39:00,31.1,3.3,29.29,SW,223,8.7,10.5,30,0.00,,---,0.00,VWS V13.01,2013-02-20 11:39:00,
2013-02-20 06:44:00,31.1,3.3,29.29,SSE,162,5.8,11.0,30,0.00,,---,0.00,VWS V13.01,2013-02-20 11:44:00,
2013-02-20 06:54:00,31.1,3.3,29.29,South,186,7.2,15.4,30,0.00,,---,0.00,VWS V13.01,2013-02-20 11:54:00,
2013-02-20 06:59:00,31.5,2.1,29.29,SSW,207,6.3,10.5,28,0.00,,---,0.00,VWS V13.01,2013-02-20 11:59:00,
2013-02-20 07:09:00,31.5,2.1,29.29,South,176,5.8,10.5,28,0.00,,---,0.00,VWS V13.01,2013-02-20 12:09:00,
2013-02-20 07:14:00,31.6,2.3,29.32,SSE,158,4.9,10.1,28,0.00,,---,0.00,VWS V13.01,2013-02-20 12:14:00,
2013-02-20 07:19:00,31.5,2.1,29.32,SSE,167,8.1,15.0,28,0.00,,---,0.00,VWS V13.01,2013-02-20 12:19:00,
2013-02-20 07:24:00,31.5,2.1,29.32,SSW,194,13.2,17.9,28,0.00,,---,0.00,VWS V13.01,2013-02-20 12:24:00,
2013-02-20 07:29:00,31.6,-0.1,29.32,South,184,3.1,17.4,25,0.00,,---,0.00,VWS V13.01,2013-02-20 12:29:00,
2013-02-20 07:34:00,32.2,0.3,29.32,SSE,168,5.8,12.3,25,0.00,,---,0.00,VWS V13.01,2013-02-20 12:34:00,
2013-02-20 07:39:00,32.2,0.3,29.32,SSE,164,5.8,11.0,25,0.00,,---,0.00,VWS V13.01,2013-02-20 12:39:00,
2013-02-20 07:44:00,32.2,0.3,29.32,South,190,8.7,12.3,25,0.00,,---,0.00,VWS V13.01,2013-02-20 12:44:00,
2013-02-20 07:49:00,32.0,0.2,29.32,SSW,192,6.3,14.5,25,0.00,,---,0.00,VWS V13.01,2013-02-20 12:49:00,
2013-02-20 07:54:00,32.0,0.2,29.32,SSW,197,8.3,17.0,25,0.00,,---,0.00,VWS V13.01,2013-02-20 12:54:00,
2013-02-20 07:59:00,32.2,0.3,29.32,SSW,210,8.3,15.4,25,0.00,,---,0.00,VWS V13.01,2013-02-20 12:59:00,
2013-02-20 08:04:00,31.5,-0.3,29.32,SW,219,5.8,15.4,25,0.00,,---,0.00,VWS V13.01,2013-02-20 13:04:00,
2013-02-20 08:09:00,31.6,-0.1,29.32,SE,145,5.8,11.0,25,0.00,,---,0.00,VWS V13.01,2013-02-20 13:09:00,
2013-02-20 08:14:00,31.6,-0.1,29.32,South,187,6.3,11.0,25,0.00,,---,0.00,VWS V13.01,2013-02-20 13:14:00,
2013-02-20 08:19:00,32.0,0.2,29.32,SE,145,9.6,11.0,25,0.00,,---,0.00,VWS V13.01,2013-02-20 13:19:00,
2013-02-20 08:29:00,31.5,-0.3,29.32,SSW,192,8.7,17.4,25,0.00,,---,0.00,VWS V13.01,2013-02-20 13:29:00,
2013-02-20 08:34:00,31.3,-0.4,29.32,SSE,161,4.0,16.8,25,0.00,,---,0.00,VWS V13.01,2013-02-20 13:34:00,
2013-02-20 08:39:00,31.5,-0.3,29.32,South,169,6.3,15.0,25,0.00,,---,0.00,VWS V13.01,2013-02-20 13:39:00,
2013-02-20 08:44:00,31.5,-0.3,29.32,SW,223,11.0,13.2,25,0.00,,---,0.00,VWS V13.01,2013-02-20 13:44:00,
2013-02-20 08:49:00,31.5,-0.3,29.32,South,182,12.3,17.4,25,0.00,,---,0.00,VWS V13.01,2013-02-20 13:49:00,
2013-02-20 08:54:00,31.3,-0.4,29.32,South,172,8.1,18.8,25,0.00,,---,0.00,VWS V13.01,2013-02-20 13:54:00,
2013-02-20 08:59:00,31.6,-0.1,29.35,SE,136,5.8,10.1,25,0.00,,---,0.00,VWS V13.01,2013-02-20 13:59:00,
2013-02-20 09:09:00,31.3,-0.4,29.35,South,169,7.6,19.2,25,0.00,,---,0.00,VWS V13.01,2013-02-20 14:09:00,
2013-02-20 09:14:00,31.3,-0.4,29.35,South,179,11.0,17.9,25,0.00,,---,0.00,VWS V13.01,2013-02-20 14:14:00,
2013-02-20 09:19:00,31.5,-0.3,29.35,SE,137,8.1,15.4,25,0.00,,---,0.00,VWS V13.01,2013-02-20 14:19:00,
2013-02-20 09:24:00,31.5,-2.0,29.35,SSW,192,8.3,15.4,23,0.00,,---,0.00,VWS V13.01,2013-02-20 14:24:00,
2013-02-20 09:29:00,31.6,-1.9,29.35,South,173,8.3,19.7,23,0.00,,---,0.00,VWS V13.01,2013-02-20 14:29:00,
2013-02-20 09:34:00,31.8,0.0,29.35,South,178,10.5,23.3,25,0.00,,---,0.00,VWS V13.01,2013-02-20 14:34:00,
2013-02-20 09:39:00,32.2,0.3,29.35,SSE,160,8.7,13.2,25,0.00,,---,0.00,VWS V13.01,2013-02-20 14:39:00,
2013-02-20 09:44:00,32.5,0.6,29.35,SSE,168,12.8,15.4,25,0.00,,---,0.00,VWS V13.01,2013-02-20 14:44:00,
2013-02-20 09:49:00,32.5,-1.1,29.35,SSW,207,8.1,13.6,23,0.00,,---,0.00,VWS V13.01,2013-02-20 14:49:00,
2013-02-20 09:54:00,31.6,-1.9,29.35,SE,133,11.0,19.2,23,0.00,,---,0.00,VWS V13.01,2013-02-20 14:54:00,
2013-02-20 10:04:00,32.4,0.5,29.35,SSE,155,8.7,13.2,25,0.00,,---,0.00,VWS V13.01,2013-02-20 15:04:00,
2013-02-20 10:09:00,33.3,1.2,29.35,SSW,199,8.3,15.4,25,0.00,,---,0.00,VWS V13.01,2013-02-20 15:09:00,
2013-02-20 10:14:00,33.8,-1.0,29.35,South,186,8.1,15.4,22,0.00,,---,0.00,VWS V13.01,2013-02-20 15:14:00,
2013-02-20 10:19:00,34.3,-0.6,29.38,SW,224,20.1,20.1,22,0.00,,---,0.00,VWS V13.01,2013-02-20 15:19:00,
2013-02-20 10:24:00,34.2,-0.7,29.38,South,175,7.6,20.1,22,0.00,,---,0.00,VWS V13.01,2013-02-20 15:24:00,
2013-02-20 10:29:00,33.6,-0.2,29.38,South,179,8.7,17.0,23,0.00,,---,0.00,VWS V13.01,2013-02-20 15:29:00,
2013-02-20 10:34:00,33.6,-0.2,29.38,SSW,206,14.5,14.5,23,0.00,,---,0.00,VWS V13.01,2013-02-20 15:34:00,
2013-02-20 10:39:00,33.3,-0.5,29.38,SSE,167,10.1,14.5,23,0.00,,---,0.00,VWS V13.01,2013-02-20 15:39:00,
2013-02-20 10:44:00,33.1,-0.7,29.38,South,179,6.3,11.0,23,0.00,,---,0.00,VWS V13.01,2013-02-20 15:44:00,
2013-02-20 10:49:00,32.7,-1.0,29.38,SSE,158,5.8,11.0,23,0.00,,---,0.00,VWS V13.01,2013-02-20 15:49:00,
2013-02-20 10:54:00,32.4,-1.3,29.38,ESE,122,6.7,15.0,23,0.00,,---,0.00,VWS V13.01,2013-02-20 15:54:00,
2013-02-20 10:59:00,32.2,-1.4,29.38,SSE,149,5.8,13.2,23,0.00,,---,0.00,VWS V13.01,2013-02-20 15:59:00,
2013-02-20 11:04:00,32.5,-1.1,29.38,SSW,204,12.8,15.9,23,0.00,,---,0.00,VWS V13.01,2013-02-20 16:04:00,
2013-02-20 11:09:00,32.9,-0.8,29.38,SSE,158,3.6,12.8,23,0.00,,---,0.00,VWS V13.01,2013-02-20 16:09:00,
2013-02-20 11:19:00,33.1,-0.7,29.41,SSE,150,12.3,16.8,23,0.00,,---,0.00,VWS V13.01,2013-02-20 16:19:00,
2013-02-20 11:24:00,33.1,-0.7,29.41,SSW,195,4.9,12.3,23,0.00,,---,0.00,VWS V13.01,2013-02-20 16:24:00,
2013-02-20 11:29:00,32.7,-1.0,29.41,SW,219,6.3,13.2,23,0.00,,---,0.00,VWS V13.01,2013-02-20 16:29:00,
2013-02-20 11:34:00,32.7,-1.0,29.38,SSE,163,8.7,13.6,23,0.00,,---,0.00,VWS V13.01,2013-02-20 16:34:00,
2013-02-20 11:39:00,32.7,-1.0,29.38,SE,135,6.7,15.4,23,0.00,,---,0.00,VWS V13.01,2013-02-20 16:39:00,
2013-02-20 11:49:00,33.8,-1.0,29.38,SSW,208,6.3,13.2,22,0.00,,---,0.00,VWS V13.01,2013-02-20 16:49:00,
2013-02-20 11:54:00,33.8,-1.0,29.38,South,176,8.7,17.0,22,0.00,,---,0.00,VWS V13.01,2013-02-20 16:54:00,
2013-02-20 11:59:00,33.6,-0.2,29.38,SE,140,8.1,17.4,23,0.00,,---,0.00,VWS V13.01,2013-02-20 16:59:00,
2013-02-20 12:09:00,33.4,-0.4,29.38,SSE,168,7.6,17.9,23,0.00,,---,0.00,VWS V13.01,2013-02-20 17:09:00,
2013-02-20 12:19:00,33.4,-0.4,29.38,South,169,12.3,13.2,23,0.00,,---,0.00,VWS V13.01,2013-02-20 17:19:00,
2013-02-20 12:24:00,32.7,-1.0,29.38,SSW,199,5.4,19.7,23,0.00,,---,0.00,VWS V13.01,2013-02-20 17:24:00,
2013-02-20 12:29:00,32.9,-0.8,29.38,SSE,162,5.4,10.5,23,0.00,,---,0.00,VWS V13.01,2013-02-20 17:29:00,
2013-02-20 12:34:00,32.4,-1.3,29.38,SSE,156,13.2,13.2,23,0.00,,---,0.00,VWS V13.01,2013-02-20 17:34:00,
2013-02-20 12:39:00,32.5,-1.1,29.38,SSE,151,5.8,13.2,23,0.00,,---,0.00,VWS V13.01,2013-02-20 17:39:00,
2013-02-20 12:49:00,32.9,-0.8,29.35,South,179,3.6,12.3,23,0.00,,---,0.00,VWS V13.01,2013-02-20 17:49:00,
2013-02-20 12:54:00,33.1,-0.7,29.35,SSE,156,3.6,17.0,23,0.00,,---,0.00,VWS V13.01,2013-02-20 17:54:00,
2013-02-20 12:59:00,33.8,-1.0,29.35,South,190,5.8,8.1,22,0.00,,---,0.00,VWS V13.01,2013-02-20 17:59:00,
2013-02-20 13:04:00,33.6,-0.2,29.38,SSE,154,6.3,12.8,23,0.00,,---,0.00,VWS V13.01,2013-02-20 18:04:00,
2013-02-20 13:09:00,33.8,-1.0,29.38,SSW,192,5.8,12.8,22,0.00,,---,0.00,VWS V13.01,2013-02-20 18:09:00,
2013-02-20 13:19:00,33.6,-0.2,29.38,SSE,161,8.1,10.5,23,0.00,,---,0.00,VWS V13.01,2013-02-20 18:19:00,
2013-02-20 13:29:00,33.3,-0.5,29.38,South,177,5.8,9.6,23,0.00,,---,0.00,VWS V13.01,2013-02-20 18:29:00,
2013-02-20 13:34:00,33.3,-0.5,29.38,South,173,8.1,8.7,23,0.00,,---,0.00,VWS V13.01,2013-02-20 18:34:00,
2013-02-20 13:44:00,32.5,-1.1,29.38,South,178,5.4,14.1,23,0.00,,---,0.00,VWS V13.01,2013-02-20 18:44:00,
2013-02-20 13:49:00,32.2,-1.4,29.38,ESE,123,11.0,15.0,23,0.00,,---,0.00,VWS V13.01,2013-02-20 18:49:00,
2013-02-20 13:54:00,32.2,-1.4,29.38,SSE,168,5.4,13.2,23,0.00,,---,0.00,VWS V13.01,2013-02-20 18:54:00,
2013-02-20 13:59:00,32.5,-1.1,29.38,SSW,210,10.5,12.8,23,0.00,,---,0.00,VWS V13.01,2013-02-20 18:59:00,
2013-02-20 14:04:00,32.7,-1.0,29.38,South,182,14.1,14.5,23,0.00,,---,0.00,VWS V13.01,2013-02-20 19:04:00,
2013-02-20 14:14:00,32.7,-1.0,29.38,SSE,147,9.6,15.0,23,0.00,,---,0.00,VWS V13.01,2013-02-20 19:14:00,
2013-02-20 14:19:00,32.7,-1.0,29.38,South,191,5.8,13.2,23,0.00,,---,0.00,VWS V13.01,2013-02-20 19:19:00,
2013-02-20 14:24:00,32.2,-1.4,29.38,South,180,4.9,15.4,23,0.00,,---,0.00,VWS V13.01,2013-02-20 19:24:00,
2013-02-20 14:29:00,32.5,-1.1,29.38,SSE,152,12.8,15.0,23,0.00,,---,0.00,VWS V13.01,2013-02-20 19:29:00,
2013-02-20 14:34:00,32.4,-1.3,29.38,South,178,11.0,15.4,23,0.00,,---,0.00,VWS V13.01,2013-02-20 19:34:00,
2013-02-20 14:39:00,33.1,-0.7,29.38,South,180,5.8,13.2,23,0.00,,---,0.00,VWS V13.01,2013-02-20 19:39:00,
2013-02-20 14:44:00,33.1,-0.7,29.38,SSE,155,5.8,18.8,23,0.00,,---,0.00,VWS V13.01,2013-02-20 19:44:00,
2013-02-20 14:49:00,32.9,-0.8,29.38,SSE,162,6.3,22.4,23,0.00,,---,0.00,VWS V13.01,2013-02-20 19:49:00,
2013-02-20 14:54:00,33.1,-0.7,29.38,SSE,158,3.6,12.3,23,0.00,,---,0.00,VWS V13.01,2013-02-20 19:54:00,
2013-02-20 14:59:00,32.7,-1.0,29.38,SSE,153,7.6,11.0,23,0.00,,---,0.00,VWS V13.01,2013-02-20 19:59:00,
2013-02-20 15:04:00,33.3,-0.5,29.38,ESE,103,3.6,12.8,23,0.00,,---,0.00,VWS V13.01,2013-02-20 20:04:00,
2013-02-20 15:09:00,33.6,-0.2,29.38,South,169,7.2,13.2,23,0.00,,---,0.00,VWS V13.01,2013-02-20 20:09:00,
2013-02-20 15:14:00,33.1,-0.7,29.38,SSE,165,8.1,18.3,23,0.00,,---,0.00,VWS V13.01,2013-02-20 20:14:00,
2013-02-20 15:19:00,33.6,-0.2,29.38,South,191,8.7,17.4,23,0.00,,---,0.00,VWS V13.01,2013-02-20 20:19:00,
2013-02-20 15:24:00,33.8,-1.0,29.38,SSW,211,13.2,16.8,22,0.00,,---,0.00,VWS V13.01,2013-02-20 20:24:00,
2013-02-20 15:29:00,34.0,-0.9,29.38,SE,128,8.1,13.6,22,0.00,,---,0.00,VWS V13.01,2013-02-20 20:29:00,
2013-02-20 15:39:00,34.3,-0.6,29.41,SSE,156,8.7,21.9,22,0.00,,---,0.00,VWS V13.01,2013-02-20 20:39:00,
2013-02-20 15:44:00,34.3,-0.6,29.41,ESE,114,12.8,14.5,22,0.00,,---,0.00,VWS V13.01,2013-02-20 20:44:00,
2013-02-20 15:49:00,35.1,0.1,29.41,South,182,7.6,14.5,22,0.00,,---,0.00,VWS V13.01,2013-02-20 20:49:00,
2013-02-20 15:54:00,34.9,-0.1,29.41,SE,140,8.7,11.0,22,0.00,,---,0.00,VWS V13.01,2013-02-20 20:54:00,
2013-02-20 15:59:00,34.5,-0.4,29.41,SSE,165,11.0,19.2,22,0.00,,---,0.00,VWS V13.01,2013-02-20 20:59:00,
2013-02-20 16:09:00,34.9,-0.1,29.41,East,95,7.6,15.4,22,0.00,,---,0.00,VWS V13.01,2013-02-20 21:09:00,
2013-02-20 16:14:00,33.8,-1.0,29.41,SSE,165,8.7,16.3,22,0.00,,---,0.00,VWS V13.01,2013-02-20 21:14:00,
2013-02-20 16:24:00,32.2,-1.4,29.41,SE,144,5.8,13.2,23,0.00,,---,0.00,VWS V13.01,2013-02-20 21:24:00,
2013-02-20 16:29:00,31.5,-2.0,29.41,South,181,10.1,18.3,23,0.00,,---,0.00,VWS V13.01,2013-02-20 21:29:00,
2013-02-20 16:34:00,30.9,-2.5,29.41,SSW,194,10.1,15.4,23,0.00,,---,0.00,VWS V13.01,2013-02-20 21:34:00,
2013-02-20 16:39:00,30.6,-2.8,29.41,South,186,12.8,20.6,23,0.00,,---,0.00,VWS V13.01,2013-02-20 21:39:00,
2013-02-20 16:49:00,30.6,-2.8,29.41,South,183,10.1,11.0,23,0.00,,---,0.00,VWS V13.01,2013-02-20 21:49:00,
2013-02-20 16:54:00,30.4,-3.0,29.41,NW,304,5.4,11.0,23,0.00,,---,0.00,VWS V13.01,2013-02-20 21:54:00,
2013-02-20 16:59:00,30.2,-3.1,29.41,South,170,10.5,23.7,23,0.00,,---,0.00,VWS V13.01,2013-02-20 21:59:00,
2013-02-20 17:09:00,29.8,-3.4,29.41,WSW,242,11.0,24.2,23,0.00,,---,0.00,VWS V13.01,2013-02-20 22:09:00,
2013-02-20 17:14:00,29.5,-3.7,29.41,South,187,10.1,15.4,23,0.00,,---,0.00,VWS V13.01,2013-02-20 22:14:00,
2013-02-20 17:19:00,29.3,-3.9,29.41,SE,129,15.0,22.4,23,0.00,,---,0.00,VWS V13.01,2013-02-20 22:19:00,
2013-02-20 17:24:00,29.1,-4.1,29.41,South,191,6.7,20.6,23,0.00,,---,0.00,VWS V13.01,2013-02-20 22:24:00,
2013-02-20 17:29:00,29.1,-4.1,29.41,SW,235,7.6,15.0,23,0.00,,---,0.00,VWS V13.01,2013-02-20 22:29:00,
2013-02-20 17:34:00,28.9,-4.2,29.41,SE,143,15.4,19.7,23,0.00,,---,0.00,VWS V13.01,2013-02-20 22:34:00,
2013-02-20 17:39:00,28.8,-4.3,29.41,SSE,153,15.0,17.0,23,0.00,,---,0.00,VWS V13.01,2013-02-20 22:39:00,
2013-02-20 17:44:00,28.8,-4.3,29.41,SSE,166,7.6,21.0,23,0.00,,---,0.00,VWS V13.01,2013-02-20 22:44:00,
2013-02-20 17:49:00,28.6,-4.5,29.44,SSW,196,13.6,17.0,23,0.00,,---,0.00,VWS V13.01,2013-02-20 22:49:00,
2013-02-20 17:54:00,28.6,-4.5,29.44,SSW,200,10.1,17.4,23,0.00,,---,0.00,VWS V13.01,2013-02-20 22:54:00,
2013-02-20 17:59:00,28.4,-4.7,29.44,South,182,5.8,15.0,23,0.00,,---,0.00,VWS V13.01,2013-02-20 22:59:00,
2013-02-20 18:04:00,28.4,-4.7,29.44,South,178,5.4,11.0,23,0.00,,---,0.00,VWS V13.01,2013-02-20 23:04:00,
2013-02-20 18:09:00,28.2,-4.8,29.44,SSW,213,14.5,17.4,23,0.00,,---,0.00,VWS V13.01,2013-02-20 23:09:00,
2013-02-20 18:14:00,28.0,-5.0,29.44,ESE,123,8.3,22.8,23,0.00,,---,0.00,VWS V13.01,2013-02-20 23:14:00,
2013-02-20 18:19:00,28.0,-5.0,29.44,South,175,5.8,8.7,23,0.00,,---,0.00,VWS V13.01,2013-02-20 23:19:00,
2013-02-20 18:24:00,28.0,-5.0,29.44,South,177,10.1,16.3,23,0.00,,---,0.00,VWS V13.01,2013-02-20 23:24:00,
2013-02-20 18:29:00,27.9,-5.1,29.44,South,183,7.2,12.8,23,0.00,,---,0.00,VWS V13.01,2013-02-20 23:29:00,
2013-02-20 18:34:00,27.9,-5.1,29.44,SSE,167,3.1,8.7,23,0.00,,---,0.00,VWS V13.01,2013-02-20 23:34:00,
2013-02-20 18:39:00,27.9,-5.1,29.44,SSE,155,9.6,12.8,23,0.00,,---,0.00,VWS V13.01,2013-02-20 23:39:00,
2013-02-20 18:44:00,27.5,-5.4,29.44,SSE,165,12.8,15.4,23,0.00,,---,0.00,VWS V13.01,2013-02-20 23:44:00,
2013-02-20 18:49:00,27.3,-5.6,29.44,South,189,11.9,16.3,23,0.00,,---,0.00,VWS V13.01,2013-02-20 23:49:00,
2013-02-20 18:54:00,27.3,-5.6,29.44,South,176,2.7,11.9,23,0.00,,---,0.00,VWS V13.01,2013-02-20 23:54:00,
2013-02-20 18:59:00,27.3,-5.6,29.44,South,180,4.5,8.7,23,0.00,,---,0.00,VWS V13.01,2013-02-20 23:59:00,
2013-02-20 19:04:00,27.1,-5.7,29.44,SSW,209,8.7,19.2,23,0.00,,---,0.00,VWS V13.01,2013-02-21 00:04:00,
2013-02-20 19:09:00,27.1,-5.7,29.44,SSW,197,10.1,15.0,23,0.00,,---,0.00,VWS V13.01,2013-02-21 00:09:00,
2013-02-20 19:14:00,27.0,-5.9,29.44,SSE,160,7.6,18.3,23,0.00,,---,0.00,VWS V13.01,2013-02-21 00:14:00,
2013-02-20 19:19:00,27.0,-5.9,29.44,South,186,14.1,15.4,23,0.00,,---,0.00,VWS V13.01,2013-02-21 00:19:00,
2013-02-20 19:24:00,26.8,-6.0,29.44,SSE,158,8.1,15.0,23,0.00,,---,0.00,VWS V13.01,2013-02-21 00:24:00,
2013-02-20 19:29:00,26.6,-5.3,29.44,SSE,159,7.6,12.8,24,0.00,,---,0.00,VWS V13.01,2013-02-21 00:29:00,
2013-02-20 19:34:00,26.6,-5.3,29.44,SE,145,8.3,11.0,24,0.00,,---,0.00,VWS V13.01,2013-02-21 00:34:00,
2013-02-20 19:39:00,26.4,-5.5,29.44,South,175,8.7,17.0,24,0.00,,---,0.00,VWS V13.01,2013-02-21 00:39:00,
2013-02-20 19:44:00,26.1,-5.8,29.44,WSW,238,10.5,19.7,24,0.00,,---,0.00,VWS V13.01,2013-02-21 00:44:00,
2013-02-20 19:49:00,26.1,-5.8,29.44,WSW,245,10.5,25.1,24,0.00,,---,0.00,VWS V13.01,2013-02-21 00:49:00,
2013-02-20 19:54:00,26.1,-5.8,29.44,South,181,9.6,17.4,24,0.00,,---,0.00,VWS V13.01,2013-02-21 00:54:00,
2013-02-20 19:59:00,25.7,-6.1,29.44,SSE,165,10.1,17.4,24,0.00,,---,0.00,VWS V13.01,2013-02-21 00:59:00,
2013-02-20 20:09:00,25.7,-6.1,29.44,SSW,212,8.7,15.9,24,0.00,,---,0.00,VWS V13.01,2013-02-21 01:09:00,
2013-02-20 20:14:00,25.7,-6.1,29.44,SSW,199,5.8,13.2,24,0.00,,---,0.00,VWS V13.01,2013-02-21 01:14:00,
2013-02-20 20:19:00,25.5,-6.2,29.44,South,191,17.4,17.4,24,0.00,,---,0.00,VWS V13.01,2013-02-21 01:19:00,
2013-02-20 20:24:00,25.5,-6.2,29.44,SSW,195,8.1,18.8,24,0.00,,---,0.00,VWS V13.01,2013-02-21 01:24:00,
2013-02-20 20:29:00,25.3,-6.4,29.44,South,174,8.7,17.0,24,0.00,,---,0.00,VWS V13.01,2013-02-21 01:29:00,
2013-02-20 20:34:00,25.3,-6.4,29.44,South,180,15.4,16.3,24,0.00,,---,0.00,VWS V13.01,2013-02-21 01:34:00,
2013-02-20 20:39:00,25.3,-6.4,29.44,SSW,211,8.1,15.4,24,0.00,,---,0.00,VWS V13.01,2013-02-21 01:39:00,
2013-02-20 20:44:00,25.3,-6.4,29.41,SSE,151,6.3,15.4,24,0.00,,---,0.00,VWS V13.01,2013-02-21 01:44:00,
2013-02-20 20:54:00,25.2,-6.6,29.41,South,189,3.1,11.4,24,0.00,,---,0.00,VWS V13.01,2013-02-21 01:54:00,
2013-02-20 20:59:00,25.2,-6.6,29.44,SE,133,8.3,14.5,24,0.00,,---,0.00,VWS V13.01,2013-02-21 01:59:00,
2013-02-20 21:04:00,25.2,-6.6,29.44,South,175,2.7,10.5,24,0.00,,---,0.00,VWS V13.01,2013-02-21 02:04:00,
2013-02-20 21:09:00,25.2,-6.6,29.44,SSE,166,4.0,15.9,24,0.00,,---,0.00,VWS V13.01,2013-02-21 02:09:00,
2013-02-20 21:14:00,25.2,-6.6,29.44,SSW,192,10.1,11.0,24,0.00,,---,0.00,VWS V13.01,2013-02-21 02:14:00,
2013-02-20 21:19:00,25.2,-6.6,29.44,SSE,167,8.7,12.3,24,0.00,,---,0.00,VWS V13.01,2013-02-21 02:19:00,
2013-02-20 21:24:00,25.2,-6.6,29.44,South,179,5.4,11.0,24,0.00,,---,0.00,VWS V13.01,2013-02-21 02:24:00,
2013-02-20 21:29:00,25.0,-6.7,29.44,ESE,111,8.1,8.1,24,0.00,,---,0.00,VWS V13.01,2013-02-21 02:29:00,
2013-02-20 21:34:00,24.8,-6.9,29.44,South,170,7.6,11.0,24,0.00,,---,0.00,VWS V13.01,2013-02-21 02:34:00,
2013-02-20 21:39:00,24.8,-6.9,29.44,WSW,246,4.0,13.2,24,0.00,,---,0.00,VWS V13.01,2013-02-21 02:39:00,
2013-02-20 21:44:00,24.8,-6.9,29.44,SSW,208,8.1,17.0,24,0.00,,---,0.00,VWS V13.01,2013-02-21 02:44:00,
2013-02-20 21:49:00,24.8,-6.9,29.44,SSE,166,11.0,13.2,24,0.00,,---,0.00,VWS V13.01,2013-02-21 02:49:00,
2013-02-20 21:54:00,24.8,-6.9,29.44,SSE,162,8.1,14.5,24,0.00,,---,0.00,VWS V13.01,2013-02-21 02:54:00,
2013-02-20 21:59:00,24.8,-6.9,29.44,South,169,3.1,17.0,24,0.00,,---,0.00,VWS V13.01,2013-02-21 02:59:00,
2013-02-20 22:04:00,24.8,-6.9,29.41,South,186,5.8,10.1,24,0.00,,---,0.00,VWS V13.01,2013-02-21 03:04:00,
2013-02-20 22:09:00,24.6,-7.0,29.41,South,184,8.3,27.1,24,0.00,,---,0.00,VWS V13.01,2013-02-21 03:09:00,
2013-02-20 22:14:00,24.6,-7.0,29.41,South,186,7.6,13.2,24,0.00,,---,0.00,VWS V13.01,2013-02-21 03:14:00,
2013-02-20 22:19:00,24.6,-7.0,29.41,South,174,11.0,21.9,24,0.00,,---,0.00,VWS V13.01,2013-02-21 03:19:00,
2013-02-20 22:24:00,24.6,-7.0,29.41,ESE,108,12.3,16.8,24,0.00,,---,0.00,VWS V13.01,2013-02-21 03:24:00,
2013-02-20 22:34:00,24.4,-7.2,29.41,South,176,5.8,15.4,24,0.00,,---,0.00,VWS V13.01,2013-02-21 03:34:00,
2013-02-20 22:39:00,24.4,-7.2,29.41,SSW,199,8.3,15.4,24,0.00,,---,0.00,VWS V13.01,2013-02-21 03:39:00,
2013-02-20 22:44:00,24.4,-7.2,29.41,SE,141,6.3,23.3,24,0.00,,---,0.00,VWS V13.01,2013-02-21 03:44:00,
2013-02-20 22:49:00,24.4,-7.2,29.44,South,178,3.6,16.8,24,0.00,,---,0.00,VWS V13.01,2013-02-21 03:49:00,
2013-02-20 22:54:00,24.4,-7.2,29.44,South,175,7.6,11.0,24,0.00,,---,0.00,VWS V13.01,2013-02-21 03:54:00,
2013-02-20 22:59:00,24.4,-7.2,29.44,South,189,3.6,15.4,24,0.00,,---,0.00,VWS V13.01,2013-02-21 03:59:00,
2013-02-20 23:04:00,24.4,-7.2,29.44,SSE,167,8.3,10.5,24,0.00,,---,0.00,VWS V13.01,2013-02-21 04:04:00,
2013-02-20 23:09:00,24.3,-7.3,29.44,SSW,206,8.1,13.2,24,0.00,,---,0.00,VWS V13.01,2013-02-21 04:09:00,
2013-02-20 23:14:00,24.3,-7.3,29.44,SSW,204,7.2,15.4,24,0.00,,---,0.00,VWS V13.01,2013-02-21 04:14:00,
2013-02-20 23:19:00,24.3,-7.3,29.44,SE,146,8.1,14.1,24,0.00,,---,0.00,VWS V13.01,2013-02-21 04:19:00,
2013-02-20 23:29:00,24.3,-7.3,29.44,SSE,165,8.1,11.0,24,0.00,,---,0.00,VWS V13.01,2013-02-21 04:29:00,
2013-02-20 23:34:00,24.3,-7.3,29.44,SSE,151,4.9,12.8,24,0.00,,---,0.00,VWS V13.01,2013-02-21 04:34:00,
2013-02-20 23:39:00,24.4,-7.2,29.44,SSE,156,5.8,9.2,24,0.00,,---,0.00,VWS V13.01,2013-02-21 04:39:00,
2013-02-20 23:44:00,24.4,-7.2,29.44,SSE,162,8.3,8.3,24,0.00,,---,0.00,VWS V13.01,2013-02-21 04:44:00,
2013-02-20 23:49:00,24.4,-7.2,29.44,SSW,209,4.9,8.7,24,0.00,,---,0.00,VWS V13.01,2013-02-21 04:49:00,
2013-02-20 23:54:00,24.4,-7.2,29.44,SSE,150,5.4,8.7,24,0.00,,---,0.00,VWS V13.01,2013-02-21 04:54:00,
2013-02-20 23:59:00,24.4,-7.2,29.44,SSE,150,5.4,8.7,24,0.00,,---,0.00,VWS V13.01,2013-02-21 04:59:00,